Location: Cambridge (historical)
(38.6883°N, 119.0140°W)
Time: 13:36:22
(UTC+00:00)

Cosmos 1428 Rocket - Pass Details

Date: 29 October 2020
Orbit: 947 x 989 km, 82.9° (Epoch: 01 December)

Event Time Altitude Azimuth Distance (km) Brightness Sun altitude
Rises 12:45:01 0° 185° (S) 3,665 7.5 -19.1°
Reaches altitude 10° 12:47:32 10° 185° (S) 2,716 6.8 -18.6°
Maximum altitude 12:53:46 89° 274° (W) 975 4.4 -17.4°
Drops below altitude 10° 12:59:59 10° 7° (N) 2,704 6.8 -16.2°
Sets 13:02:28 0° 7° (N) 3,648 7.5 -15.7°
